| time (UTC) | temp F | wind direction | speed MPH | gust MPH | rain 1hr in | rain 24hr in | rain mn in | humidity % | barometer mb |
| 20260831195104 | 77 | 315 | 2.0 | 7.0 | 0.00 | 0.00 | 0.00 | 73 | 1014.9 |
| 20260831194604 | 77 | 338 | 2.0 | 7.0 | 0.00 | 0.00 | 0.00 | 73 | 1014.9 |
| 20260831194104 | 77 | 346 | 2.0 | 6.0 | 0.00 | 0.00 | 0.00 | 72 | 1014.9 |
| 20260831193604 | 77 | 319 | 2.0 | 6.0 | 0.00 | 0.00 | 0.00 | 72 | 1014.6 |
| 20260831192104 | 77 | 328 | 3.0 | 5.0 | 0.00 | 0.00 | 0.00 | 72 | 1014.6 |
| 20260831191604 | 77 | 337 | 3.0 | 7.0 | 0.00 | 0.00 | 0.00 | 73 | 1014.6 |
| 20260831191104 | 77 | 324 | 4.0 | 8.0 | 0.00 | 0.00 | 0.00 | 73 | 1014.6 |
| 20260831190604 | 77 | 315 | 5.0 | 8.0 | 0.00 | 0.00 | 0.00 | 73 | 1014.5 |
| 20260831190104 | 78 | 319 | 5.0 | 12.0 | 0.00 | 0.00 | 0.00 | 73 | 1014.5 |
| 20260831185604 | 78 | 326 | 5.0 | 8.0 | 0.00 | 0.00 | 0.00 | 72 | 1014.5 |
| 20260831185104 | 78 | 314 | 5.0 | 9.0 | 0.00 | 0.00 | 0.00 | 72 | 1014.3 |
| 20260831184104 | 78 | 321 | 3.0 | 7.0 | 0.00 | 0.00 | 0.00 | 71 | 1014.3 |
| 20260831183604 | 78 | 329 | 3.0 | 7.0 | 0.00 | 0.00 | 0.00 | 71 | 1014.3 |
| 20260831183104 | 78 | 334 | 3.0 | 6.0 | 0.00 | 0.00 | 0.00 | 70 | 1014.3 |
| 20260831182604 | 78 | 337 | 3.0 | 6.0 | 0.00 | 0.00 | 0.00 | 70 | 1014.3 |
| 20260831182104 | 79 | 332 | 3.0 | 6.0 | 0.00 | 0.00 | 0.00 | 69 | 1014.3 |
| 20260831181603 | 79 | 315 | 3.0 | 6.0 | 0.00 | 0.00 | 0.00 | 69 | 1014.3 |
| 20260831181104 | 79 | 336 | 3.0 | 6.0 | 0.00 | 0.00 | 0.00 | 68 | 1014.3 |
| 20260831180604 | 79 | 326 | 3.0 | 7.0 | 0.00 | 0.00 | 0.00 | 68 | 1014.1 |
| 20260831180104 | 79 | 329 | 4.0 | 7.0 | 0.00 | 0.00 | 0.00 | 67 | 1014.1 |
| 20260831175604 | 80 | 332 | 5.0 | 8.0 | 0.00 | 0.00 | 0.00 | 67 | 1014.1 |
| 20260831175104 | 80 | 340 | 5.0 | 8.0 | 0.00 | 0.00 | 0.00 | 66 | 1014.1 |
| 20260831174604 | 80 | 330 | 5.0 | 8.0 | 0.00 | 0.00 | 0.00 | 66 | 1014.1 |
| 20260831173604 | 81 | 325 | 5.0 | 9.0 | 0.00 | 0.00 | 0.00 | 64 | 1014.2 |
| 20260831173104 | 82 | 338 | 3.0 | 8.0 | 0.00 | 0.00 | 0.00 | 63 | 1014.2 |
| 20260831172604 | 82 | 322 | 3.0 | 8.0 | 0.00 | 0.00 | 0.00 | 63 | 1014.2 |
| 20260831172104 | 83 | 342 | 4.0 | 8.0 | 0.00 | 0.00 | 0.00 | 62 | 1014.1 |
| 20260831171604 | 83 | 306 | 5.0 | 6.0 | 0.00 | 0.00 | 0.00 | 60 | 1014.1 |
| 20260831171104 | 83 | 321 | 3.0 | 5.0 | 0.00 | 0.00 | 0.00 | 59 | 1014.1 |
| 20260831170604 | 83 | 326 | 3.0 | 8.0 | 0.00 | 0.00 | 0.00 | 58 | 1014.0 |
| 20260831170104 | 84 | 354 | 3.0 | 9.0 | 0.00 | 0.00 | 0.00 | 58 | 1014.0 |
| 20260831165604 | 84 | 330 | 3.0 | 7.0 | 0.00 | 0.00 | 0.00 | 57 | 1014.0 |
| 20260831164604 | 84 | 340 | 3.0 | 7.0 | 0.00 | 0.00 | 0.00 | 56 | 1014.1 |
| 20260831164103 | 84 | 2 | 4.0 | 8.0 | 0.00 | 0.00 | 0.00 | 56 | 1014.1 |
| 20260831163603 | 85 | 334 | 5.0 | 6.0 | 0.00 | 0.00 | 0.00 | 55 | 1014.1 |
| 20260831162603 | 85 | 340 | 3.0 | 8.0 | 0.00 | 0.00 | 0.00 | 54 | 1014.1 |
| 20260831162104 | 85 | 323 | 4.0 | 6.0 | 0.00 | 0.00 | 0.00 | 53 | 1014.3 |
| 20260831161604 | 86 | 351 | 5.0 | 9.0 | 0.00 | 0.00 | 0.00 | 51 | 1014.3 |
| 20260831161104 | 86 | 333 | 5.0 | 7.0 | 0.00 | 0.00 | 0.00 | 50 | 1014.3 |
| 20260831160604 | 86 | 321 | 5.0 | 8.0 | 0.00 | 0.00 | 0.00 | 49 | 1014.3 |
| 20260831155604 | 87 | 330 | 5.0 | 7.0 | 0.00 | 0.00 | 0.00 | 49 | 1014.3 |
| 20260831155104 | 87 | 317 | 5.0 | 7.0 | 0.00 | 0.00 | 0.00 | 48 | 1014.3 |
| 20260831154603 | 87 | 316 | 5.0 | 7.0 | 0.00 | 0.00 | 0.00 | 47 | 1014.3 |
| 20260831153604 | 88 | 323 | 5.0 | 10.0 | 0.00 | 0.00 | 0.00 | 47 | 1014.4 |
| 20260831153104 | 88 | 326 | 5.0 | 12.0 | 0.00 | 0.00 | 0.00 | 47 | 1014.4 |
| 20260831152604 | 88 | 334 | 5.0 | 9.0 | 0.00 | 0.00 | 0.00 | 48 | 1014.4 |
| 20260831152104 | 88 | 328 | 5.0 | 14.0 | 0.00 | 0.00 | 0.00 | 48 | 1014.5 |
| 20260831151104 | 89 | 317 | 5.0 | 9.0 | 0.00 | 0.00 | 0.00 | 49 | 1014.5 |
| 20260831150604 | 89 | 334 | 5.0 | 9.0 | 0.00 | 0.00 | 0.00 | 48 | 1014.5 |
| 20260831150105 | 89 | 325 | 5.0 | 8.0 | 0.00 | 0.00 | 0.00 | 47 | 1014.5 |
| 20260831145604 | 89 | 313 | 5.0 | 13.0 | 0.00 | 0.00 | 0.00 | 48 | 1014.5 |
| 20260831145104 | 89 | 327 | 6.0 | 9.0 | 0.00 | 0.00 | 0.00 | 46 | 1014.5 |
| 20260831144604 | 89 | 328 | 6.0 | 12.0 | 0.00 | 0.00 | 0.00 | 48 | 1014.5 |
| 20260831144104 | 89 | 323 | 7.0 | 12.0 | 0.00 | 0.00 | 0.00 | 49 | 1014.5 |
| 20260831143603 | 90 | 321 | 7.0 | 14.0 | 0.00 | 0.00 | 0.00 | 49 | 1014.5 |
| 20260831143104 | 90 | 313 | 5.0 | 14.0 | 0.00 | 0.00 | 0.00 | 48 | 1014.5 |
| 20260831142604 | 90 | 322 | 5.0 | 14.0 | 0.00 | 0.00 | 0.00 | 47 | 1014.5 |
| 20260831142104 | 91 | 315 | 5.0 | 10.0 | 0.00 | 0.00 | 0.00 | 46 | 1014.4 |
| 20260831141604 | 90 | 335 | 6.0 | 13.0 | 0.00 | 0.00 | 0.00 | 47 | 1014.4 |
| 20260831141104 | 90 | 311 | 7.0 | 13.0 | 0.00 | 0.00 | 0.00 | 48 | 1014.4 |
| 20260831135604 | 90 | 315 | 6.0 | 13.0 | 0.00 | 0.00 | 0.00 | 46 | 1014.5 |
| 20260831135104 | 91 | 313 | 5.0 | 14.0 | 0.00 | 0.00 | 0.00 | 45 | 1014.7 |
| 20260831134604 | 91 | 339 | 5.0 | 9.0 | 0.00 | 0.00 | 0.00 | 45 | 1014.7 |
| 20260831134104 | 91 | 324 | 5.0 | 8.0 | 0.00 | 0.00 | 0.00 | 45 | 1014.7 |
| 20260831133104 | 91 | 347 | 5.0 | 10.0 | 0.00 | 0.00 | 0.00 | 45 | 1014.7 |
| 20260831132604 | 91 | 326 | 6.0 | 13.0 | 0.00 | 0.00 | 0.00 | 45 | 1014.7 |
| 20260831132104 | 91 | 333 | 5.0 | 13.0 | 0.00 | 0.00 | 0.00 | 45 | 1014.7 |
| 20260831131604 | 92 | 329 | 5.0 | 12.0 | 0.00 | 0.00 | 0.00 | 44 | 1014.7 |
| 20260831131104 | 92 | 324 | 5.0 | 9.0 | 0.00 | 0.00 | 0.00 | 43 | 1014.7 |
| 20260831130604 | 92 | 309 | 5.0 | 7.0 | 0.00 | 0.00 | 0.00 | 44 | 1014.8 |
| 20260831130104 | 92 | 310 | 5.0 | 7.0 | 0.00 | 0.00 | 0.00 | 43 | 1014.8 |
| 20260831125604 | 91 | 333 | 5.0 | 8.0 | 0.00 | 0.00 | 0.00 | 44 | 1014.8 |
| 20260831125104 | 91 | 315 | 6.0 | 12.0 | 0.00 | 0.00 | 0.00 | 44 | 1014.8 |
| 20260831124604 | 91 | 322 | 6.0 | 9.0 | 0.00 | 0.00 | 0.00 | 44 | 1014.8 |
| 20260831123604 | 90 | 317 | 6.0 | 12.0 | 0.00 | 0.00 | 0.00 | 45 | 1014.9 |
| 20260831123104 | 90 | 322 | 6.0 | 10.0 | 0.00 | 0.00 | 0.00 | 46 | 1014.9 |
| 20260831122104 | 90 | 316 | 5.0 | 13.0 | 0.00 | 0.00 | 0.00 | 46 | 1015.2 |
| 20260831121604 | 90 | 324 | 5.0 | 10.0 | 0.00 | 0.00 | 0.00 | 46 | 1015.2 |
| 20260831121104 | 90 | 304 | 5.0 | 9.0 | 0.00 | 0.00 | 0.00 | 46 | 1015.2 |
| 20260831120604 | 90 | 312 | 6.0 | 9.0 | 0.00 | 0.00 | 0.00 | 48 | 1015.2 |
| 20260831115604 | 90 | 317 | 5.0 | 10.0 | 0.00 | 0.00 | 0.00 | 47 | 1015.2 |
| 20260831115103 | 89 | 339 | 3.0 | 12.0 | 0.00 | 0.00 | 0.00 | 48 | 1015.4 |
| 20260831114604 | 89 | 319 | 2.0 | 9.0 | 0.00 | 0.00 | 0.00 | 49 | 1015.4 |
| 20260831114104 | 89 | 347 | 2.0 | 5.0 | 0.00 | 0.00 | 0.00 | 47 | 1015.4 |
| 20260831113604 | 90 | 321 | 2.0 | 5.0 | 0.00 | 0.00 | 0.00 | 47 | 1015.5 |
| 20260831113104 | 90 | 135 | 2.0 | 5.0 | 0.00 | 0.00 | 0.00 | 48 | 1015.5 |
| 20260831112603 | 90 | 311 | 2.0 | 6.0 | 0.00 | 0.00 | 0.00 | 46 | 1015.5 |
| 20260831112104 | 90 | 305 | 3.0 | 5.0 | 0.00 | 0.00 | 0.00 | 46 | 1015.6 |
| 20260831111603 | 90 | 307 | 3.0 | 5.0 | 0.00 | 0.00 | 0.00 | 47 | 1015.6 |
| 20260831111104 | 90 | 164 | 2.0 | 5.0 | 0.00 | 0.00 | 0.00 | 47 | 1015.6 |
| 20260831110104 | 90 | 305 | 2.0 | 9.0 | 0.00 | 0.00 | 0.00 | 46 | 1015.8 |
| 20260831105604 | 90 | 139 | 2.0 | 5.0 | 0.00 | 0.00 | 0.00 | 46 | 1015.8 |
| 20260831105105 | 90 | 125 | 2.0 | 7.0 | 0.00 | 0.00 | 0.00 | 46 | 1015.9 |
| 20260831104604 | 90 | 333 | 2.0 | 6.0 | 0.00 | 0.00 | 0.00 | 46 | 1015.9 |
| 20260831104104 | 90 | 357 | 2.0 | 5.0 | 0.00 | 0.00 | 0.00 | 48 | 1015.9 |
| 20260831103604 | 89 | 228 | 2.0 | 5.0 | 0.00 | 0.00 | 0.00 | 48 | 1015.9 |
| 20260831103103 | 89 | 320 | 2.0 | 3.0 | 0.00 | 0.00 | 0.00 | 46 | 1015.9 |
| 20260831102604 | 89 | 26 | 2.0 | 3.0 | 0.00 | 0.00 | 0.00 | 47 | 1015.9 |
| 20260831102105 | 88 | 296 | 2.0 | 5.0 | 0.00 | 0.00 | 0.00 | 47 | 1016.0 |
| 20260831101104 | 88 | 353 | 2.0 | 5.0 | 0.00 | 0.00 | 0.00 | 48 | 1016.0 |
| 20260831100604 | 88 | 157 | 2.0 | 5.0 | 0.00 | 0.00 | 0.00 | 48 | 1016.1 |
| 20260831100104 | 88 | 75 | 2.0 | 6.0 | 0.00 | 0.00 | 0.00 | 49 | 1016.1 |
| 20260831095604 | 88 | 309 | 2.0 | 5.0 | 0.00 | 0.00 | 0.00 | 49 | 1016.1 |
| 20260831095104 | 87 | 316 | 2.0 | 6.0 | 0.00 | 0.00 | 0.00 | 49 | 1016.2 |
| 20260831094604 | 87 | 294 | 2.0 | 7.0 | 0.00 | 0.00 | 0.00 | 50 | 1016.2 |
| 20260831093604 | 87 | 341 | 2.0 | 5.0 | 0.00 | 0.00 | 0.00 | 49 | 1016.4 |
| 20260831093104 | 87 | 337 | 2.0 | 5.0 | 0.00 | 0.00 | 0.00 | 51 | 1016.4 |
| 20260831092604 | 87 | 306 | 2.0 | 5.0 | 0.00 | 0.00 | 0.00 | 50 | 1016.4 |
| 20260831091604 | 86 | 357 | 2.0 | 5.0 | 0.00 | 0.00 | 0.00 | 52 | 1016.5 |
| 20260831091104 | 86 | 40 | 2.0 | 5.0 | 0.00 | 0.00 | 0.00 | 53 | 1016.5 |
| 20260831090604 | 86 | 68 | 2.0 | 3.0 | 0.00 | 0.00 | 0.00 | 52 | 1016.5 |
| 20260831085604 | 85 | 332 | 2.0 | 7.0 | 0.00 | 0.00 | 0.00 | 55 | 1016.5 |
| 20260831085105 | 85 | 122 | 2.0 | 5.0 | 0.00 | 0.00 | 0.00 | 55 | 1016.7 |
| 20260831084604 | 84 | 339 | 2.0 | 3.0 | 0.00 | 0.00 | 0.00 | 55 | 1016.7 |
| 20260831084104 | 84 | 344 | 2.0 | 6.0 | 0.00 | 0.00 | 0.00 | 55 | 1016.7 |
| 20260831083604 | 84 | 30 | 2.0 | 5.0 | 0.00 | 0.00 | 0.00 | 56 | 1016.5 |
| 20260831083104 | 83 | 353 | 2.0 | 5.0 | 0.00 | 0.00 | 0.00 | 56 | 1016.5 |
| 20260831082604 | 83 | 11 | 2.0 | 6.0 | 0.00 | 0.00 | 0.00 | 57 | 1016.5 |
| 20260831082104 | 83 | 349 | 2.0 | 6.0 | 0.00 | 0.00 | 0.00 | 57 | 1016.7 |
| 20260831081605 | 83 | 332 | 2.0 | 5.0 | 0.00 | 0.00 | 0.00 | 57 | 1016.7 |
| 20260831081104 | 82 | 107 | 1.0 | 3.0 | 0.00 | 0.00 | 0.00 | 56 | 1016.7 |
| 20260831080604 | 82 | 329 | 1.0 | 3.0 | 0.00 | 0.00 | 0.00 | 56 | 1016.6 |
| 20260831075604 | 80 | 108 | 2.0 | 3.0 | 0.00 | 0.00 | 0.00 | 57 | 1016.6 |
| 20260831075104 | 80 | 339 | 1.0 | 5.0 | 0.00 | 0.00 | 0.00 | 58 | 1016.6 |
| 20260831074604 | 79 | 328 | 1.0 | 5.0 | 0.00 | 0.00 | 0.00 | 58 | 1016.6 |
| 20260831074104 | 79 | 328 | 2.0 | 2.0 | 0.00 | 0.00 | 0.00 | 59 | 1016.6 |
| 20260831073604 | 78 | 327 | 2.0 | 3.0 | 0.00 | 0.00 | 0.00 | 60 | 1016.7 |
| 20260831073104 | 78 | 82 | 2.0 | 5.0 | 0.00 | 0.00 | 0.00 | 60 | 1016.7 |
| 20260831072604 | 78 | 142 | 2.0 | 5.0 | 0.00 | 0.00 | 0.00 | 59 | 1016.7 |
| 20260831072104 | 77 | 139 | 2.0 | 3.0 | 0.00 | 0.00 | 0.00 | 62 | 1016.7 |
| 20260831071604 | 77 | 136 | 2.0 | 5.0 | 0.00 | 0.00 | 0.00 | 62 | 1016.7 |
| 20260831071104 | 76 | 142 | 2.0 | 5.0 | 0.00 | 0.00 | 0.00 | 62 | 1016.7 |
| 20260831070604 | 76 | 137 | 2.0 | 5.0 | 0.00 | 0.00 | 0.00 | 63 | 1016.6 |
| 20260831070105 | 76 | 134 | 2.0 | 5.0 | 0.00 | 0.00 | 0.00 | 63 | 1016.6 |
| 20260831065605 | 75 | 144 | 2.0 | 5.0 | 0.00 | 0.00 | 0.00 | 64 | 1016.6 |
| 20260831065104 | 75 | 137 | 1.0 | 5.0 | 0.00 | 0.00 | 0.00 | 66 | 1016.4 |
| 20260831064604 | 74 | 117 | 1.0 | 3.0 | 0.00 | 0.00 | 0.00 | 69 | 1016.4 |
| 20260831064104 | 74 | 80 | 0.0 | 2.0 | 0.00 | 0.00 | 0.00 | 71 | 1016.4 |
| 20260831063604 | 73 | 327 | 0.0 | 2.0 | 0.00 | 0.00 | 0.00 | 74 | 1016.2 |
| 20260831063104 | 72 | 327 | 0.0 | 2.0 | 0.00 | 0.00 | 0.00 | 76 | 1016.2 |
| 20260831062604 | 71 | 327 | 0.0 | 2.0 | 0.00 | 0.00 | 0.00 | 77 | 1016.2 |
| 20260831062104 | 71 | 318 | 2.0 | 2.0 | 0.00 | 0.00 | 0.00 | 78 | 1016.1 |
| 20260831061604 | 70 | 318 | 2.0 | 2.0 | 0.00 | 0.00 | 0.00 | 79 | 1016.1 |
| 20260831060604 | 69 | 334 | 0.0 | 3.0 | 0.00 | 0.00 | 0.00 | 80 | 1016.2 |
| 20260831060104 | 69 | 336 | 2.0 | 2.0 | 0.00 | 0.00 | 0.00 | 80 | 1016.2 |
| 20260831055604 | 68 | 336 | 2.0 | 2.0 | 0.00 | 0.00 | 0.00 | 81 | 1016.2 |
| 20260831055103 | 68 | 336 | 1.0 | 3.0 | 0.00 | 0.00 | 0.00 | 81 | 1016.2 |
| 20260831054604 | 68 | 336 | 1.0 | 2.0 | 0.00 | 0.00 | 0.00 | 81 | 1016.2 |
| 20260831054104 | 67 | 336 | 0.0 | 2.0 | 0.00 | 0.00 | 0.00 | 82 | 1016.2 |
| 20260831053604 | 67 | 336 | 0.0 | 2.0 | 0.00 | 0.00 | 0.00 | 82 | 1016.1 |
| 20260831053104 | 67 | 336 | 1.0 | 0.0 | 0.00 | 0.00 | 0.00 | 82 | 1016.1 |
| 20260831052604 | 66 | 336 | 1.0 | 2.0 | 0.00 | 0.00 | 0.00 | 82 | 1016.1 |
| 20260831052104 | 66 | 336 | 1.0 | 2.0 | 0.00 | 0.00 | 0.00 | 83 | 1016.1 |
| 20260831051604 | 66 | 336 | 1.0 | 2.0 | 0.00 | 0.00 | 0.00 | 83 | 1016.1 |
| 20260831051104 | 66 | 336 | 2.0 | 2.0 | 0.00 | 0.00 | 0.00 | 82 | 1016.1 |
| 20260831050604 | 66 | 336 | 2.0 | 2.0 | 0.00 | 0.00 | 0.00 | 82 | 1016.2 |
| 20260831045104 | 67 | 339 | 1.0 | 3.0 | 0.00 | 0.00 | 0.00 | 81 | 1016.2 |
| 20260831044604 | 67 | 337 | 0.0 | 3.0 | 0.00 | 0.00 | 0.00 | 81 | 1016.2 |
| 20260831044104 | 67 | 130 | 1.0 | 2.0 | 0.00 | 0.00 | 0.00 | 81 | 1016.2 |
| 20260831043604 | 67 | 130 | 1.0 | 1.0 | 0.00 | 0.00 | 0.00 | 81 | 1016.1 |
| 20260831042604 | 67 | 130 | 0.0 | 3.0 | 0.00 | 0.00 | 0.00 | 80 | 1016.1 |
| 20260831042104 | 67 | 133 | 0.0 | 2.0 | 0.00 | 0.00 | 0.00 | 80 | 1016.0 |
| 20260831041104 | 67 | 133 | 1.0 | 1.0 | 0.00 | 0.00 | 0.00 | 80 | 1016.0 |
| 20260831040604 | 67 | 133 | 1.0 | 2.0 | 0.00 | 0.00 | 0.00 | 79 | 1015.9 |
| 20260831040104 | 67 | 133 | 1.0 | 2.0 | 0.00 | 0.00 | 0.00 | 79 | 1015.9 |
| 20260831035604 | 68 | 133 | 1.0 | 2.0 | 0.00 | 0.00 | 0.00 | 79 | 1015.9 |
| 20260831035104 | 68 | 133 | 2.0 | 3.0 | 0.00 | 0.00 | 0.00 | 79 | 1015.9 |
| 20260831034604 | 68 | 133 | 2.0 | 2.0 | 0.00 | 0.00 | 0.00 | 79 | 1015.9 |
| 20260831034104 | 68 | 132 | 1.0 | 3.0 | 0.00 | 0.00 | 0.00 | 79 | 1015.9 |
| 20260831033104 | 68 | 293 | 0.0 | 2.0 | 0.00 | 0.00 | 0.00 | 81 | 1015.7 |
| 20260831032604 | 68 | 294 | 0.0 | 2.0 | 0.00 | 0.00 | 0.00 | 81 | 1015.7 |
| 20260831032104 | 68 | 294 | 0.0 | 2.0 | 0.00 | 0.00 | 0.00 | 82 | 1015.6 |
| 20260831030604 | 67 | 294 | 0.0 | 2.0 | 0.00 | 0.00 | 0.00 | 83 | 1015.5 |
| 20260831030104 | 67 | 294 | 0.0 | 2.0 | 0.00 | 0.00 | 0.00 | 83 | 1015.5 |
| 20260831025604 | 67 | 294 | 0.0 | 0.0 | 0.00 | 0.00 | 0.00 | 83 | 1015.5 |
| 20260831025104 | 67 | 294 | 0.0 | 2.0 | 0.00 | 0.00 | 0.00 | 82 | 1015.7 |
| 20260831024604 | 67 | 294 | 0.0 | 2.0 | 0.00 | 0.00 | 0.00 | 82 | 1015.7 |
| 20260831024104 | 67 | 294 | 0.0 | 2.0 | 0.00 | 0.00 | 0.00 | 82 | 1015.7 |
| 20260831023604 | 67 | 294 | 0.0 | 2.0 | 0.00 | 0.00 | 0.00 | 82 | 1015.7 |
| 20260831023103 | 67 | 294 | 1.0 | 2.0 | 0.00 | 0.00 | 0.00 | 81 | 1015.7 |
| 20260831022603 | 67 | 294 | 1.0 | 2.0 | 0.00 | 0.00 | 0.00 | 81 | 1015.7 |
| 20260831022104 | 67 | 294 | 0.0 | 2.0 | 0.00 | 0.00 | 0.00 | 81 | 1015.8 |
| 20260831021104 | 68 | 294 | 0.0 | 2.0 | 0.00 | 0.00 | 0.00 | 81 | 1015.8 |
| 20260831020604 | 68 | 294 | 0.0 | 2.0 | 0.00 | 0.00 | 0.00 | 80 | 1015.9 |
| 20260831020104 | 68 | 294 | 2.0 | 2.0 | 0.00 | 0.00 | 0.00 | 79 | 1015.9 |
| 20260831015603 | 68 | 294 | 2.0 | 2.0 | 0.00 | 0.00 | 0.00 | 79 | 1015.9 |
| 20260831015104 | 68 | 294 | 2.0 | 2.0 | 0.00 | 0.00 | 0.00 | 79 | 1016.1 |
| 20260831014104 | 68 | 294 | 1.0 | 2.0 | 0.00 | 0.00 | 0.00 | 79 | 1016.1 |
| 20260831013604 | 68 | 294 | 1.0 | 3.0 | 0.00 | 0.00 | 0.00 | 79 | 1016.3 |
| 20260831012603 | 68 | 139 | 0.0 | 2.0 | 0.00 | 0.00 | 0.00 | 78 | 1016.3 |
| 20260831012104 | 68 | 138 | 0.0 | 0.0 | 0.00 | 0.00 | 0.00 | 78 | 1016.2 |
| 20260831011103 | 69 | 138 | 0.0 | 0.0 | 0.00 | 0.00 | 0.00 | 79 | 1016.2 |
| 20260831010604 | 69 | 139 | 0.0 | 1.0 | 0.00 | 0.00 | 0.00 | 79 | 1016.3 |
| 20260831010103 | 69 | 138 | 0.0 | 2.0 | 0.00 | 0.00 | 0.00 | 78 | 1016.3 |
| 20260831005604 | 69 | 138 | 0.0 | 2.0 | 0.00 | 0.00 | 0.00 | 79 | 1016.3 |
| 20260831005104 | 69 | 138 | 1.0 | 2.0 | 0.00 | 0.00 | 0.00 | 79 | 1016.3 |
| 20260831004604 | 69 | 138 | 1.0 | 1.0 | 0.00 | 0.00 | 0.00 | 79 | 1016.3 |
| 20260831004104 | 69 | 140 | 0.0 | 5.0 | 0.00 | 0.00 | 0.00 | 79 | 1016.3 |
| 20260831003604 | 70 | 144 | 0.0 | 2.0 | 0.00 | 0.00 | 0.00 | 78 | 1016.1 |
| 20260831002604 | 70 | 144 | 0.0 | 0.0 | 0.00 | 0.00 | 0.00 | 78 | 1016.1 |
| 20260831002104 | 70 | 144 | 0.0 | 0.0 | 0.00 | 0.00 | 0.00 | 77 | 1016.0 |
| 20260831001604 | 70 | 144 | 0.0 | 0.0 | 0.00 | 0.00 | 0.00 | 77 | 1016.0 |
| 20260831001104 | 71 | 144 | 0.0 | 0.0 | 0.00 | 0.00 | 0.00 | 77 | 1016.0 |
| 20260831000604 | 71 | 144 | 0.0 | 0.0 | 0.00 | 0.00 | 0.00 | 77 | 1016.0 |
| 20260831000104 | 71 | 144 | 0.0 | 0.0 | 0.00 | 0.00 | 0.00 | 76 | 1016.0 |
| 20260830235604 | 71 | 144 | 0.0 | 0.0 | 0.00 | 0.00 | 0.00 | 76 | 1016.0 |
| 20260830234603 | 72 | 144 | 1.0 | 0.0 | 0.00 | 0.00 | 0.00 | 76 | 1016.1 |
| 20260830233604 | 72 | 144 | 0.0 | 5.0 | 0.00 | 0.00 | 0.00 | 76 | 1016.1 |
| 20260830233104 | 73 | 305 | 2.0 | 2.0 | 0.00 | 0.00 | 0.00 | 77 | 1016.1 |
| 20260830232604 | 73 | 305 | 2.0 | 1.0 | 0.00 | 0.00 | 0.00 | 77 | 1016.1 |
| 20260830232104 | 73 | 305 | 2.0 | 2.0 | 0.00 | 0.00 | 0.00 | 77 | 1016.1 |
| 20260830231604 | 73 | 311 | 2.0 | 5.0 | 0.00 | 0.00 | 0.00 | 77 | 1016.1 |
| 20260830231103 | 73 | 291 | 2.0 | 3.0 | 0.00 | 0.00 | 0.00 | 77 | 1016.1 |
| 20260830225604 | 73 | 300 | 2.0 | 3.0 | 0.00 | 0.00 | 0.00 | 77 | 1016.2 |
| 20260830225104 | 73 | 300 | 2.0 | 3.0 | 0.00 | 0.00 | 0.00 | 76 | 1016.2 |
| 20260830223603 | 73 | 342 | 0.0 | 3.0 | 0.00 | 0.00 | 0.00 | 75 | 1016.2 |
| 20260830223104 | 73 | 352 | 0.0 | 2.0 | 0.00 | 0.00 | 0.00 | 74 | 1016.2 |
| 20260830222604 | 73 | 352 | 0.0 | 2.0 | 0.00 | 0.00 | 0.00 | 74 | 1016.2 |
| 20260830222104 | 73 | 352 | 1.0 | 2.0 | 0.00 | 0.00 | 0.00 | 74 | 1016.2 |
| 20260830221604 | 73 | 352 | 1.0 | 2.0 | 0.00 | 0.00 | 0.00 | 74 | 1016.2 |
| 20260830221105 | 73 | 352 | 2.0 | 2.0 | 0.00 | 0.00 | 0.00 | 74 | 1016.2 |
| 20260830220605 | 73 | 352 | 2.0 | 3.0 | 0.00 | 0.00 | 0.00 | 74 | 1016.1 |
| 20260830220104 | 74 | 352 | 1.0 | 2.0 | 0.00 | 0.00 | 0.00 | 74 | 1016.1 |
| 20260830215604 | 74 | 353 | 1.0 | 1.0 | 0.00 | 0.00 | 0.00 | 73 | 1016.1 |
| 20260830215104 | 74 | 353 | 1.0 | 1.0 | 0.00 | 0.00 | 0.00 | 73 | 1016.0 |
| 20260830214604 | 74 | 353 | 1.0 | 3.0 | 0.00 | 0.00 | 0.00 | 73 | 1016.0 |
| 20260830214104 | 74 | 338 | 1.0 | 3.0 | 0.00 | 0.00 | 0.00 | 74 | 1016.0 |
| 20260830213604 | 74 | 324 | 1.0 | 2.0 | 0.00 | 0.00 | 0.00 | 74 | 1016.0 |
| 20260830212604 | 74 | 312 | 0.0 | 2.0 | 0.00 | 0.00 | 0.00 | 73 | 1016.0 |
| 20260830212104 | 73 | 311 | 1.0 | 2.0 | 0.00 | 0.00 | 0.00 | 73 | 1016.0 |
| 20260830211605 | 74 | 310 | 1.0 | 2.0 | 0.00 | 0.00 | 0.00 | 73 | 1016.0 |
| 20260830211104 | 74 | 310 | 1.0 | 2.0 | 0.00 | 0.00 | 0.00 | 73 | 1016.0 |
| 20260830210604 | 74 | 310 | 1.0 | 2.0 | 0.00 | 0.00 | 0.00 | 73 | 1015.9 |
| 20260830210105 | 74 | 310 | 1.0 | 2.0 | 0.00 | 0.00 | 0.00 | 73 | 1015.9 |
| 20260830205604 | 74 | 310 | 1.0 | 2.0 | 0.00 | 0.00 | 0.00 | 72 | 1015.9 |
| 20260830205104 | 74 | 310 | 0.0 | 2.0 | 0.00 | 0.00 | 0.00 | 71 | 1015.9 |
| 20260830204104 | 75 | 310 | 1.0 | 0.0 | 0.00 | 0.00 | 0.00 | 70 | 1015.9 |
| 20260830203104 | 75 | 310 | 1.0 | 2.0 | 0.00 | 0.00 | 0.00 | 70 | 1015.9 |
| 20260830202604 | 75 | 310 | 1.0 | 2.0 | 0.00 | 0.00 | 0.00 | 70 | 1015.9 |
| 20260830202104 | 76 | 310 | 0.0 | 2.0 | 0.00 | 0.00 | 0.00 | 69 | 1015.9 |
| 20260830201604 | 76 | 310 | 0.0 | 2.0 | 0.00 | 0.00 | 0.00 | 68 | 1015.9 |
| 20260830201103 | 76 | 310 | 0.0 | 2.0 | 0.00 | 0.00 | 0.00 | 68 | 1015.9 |
| 20260830200604 | 76 | 310 | 0.0 | 0.0 | 0.00 | 0.00 | 0.00 | 68 | 1015.8 |